Tracking 18816 objects as of 18-October-2017
HD Live streaming from Space Station
objects crossing your sky now

GLOBALSTAR M006

Track GLOBALSTAR M006 now!
10-day predictions
GLOBALSTAR M006 is classified as:


NORAD ID: 25307
Int'l Code: 1998-023B
Perigee: 1,877.8 km
Apogee: 1,884.3 km
Inclination: 52.0 °
Period: 124.3 minutes
Semi major axis: 8252 km
RCS: 2.7065 m2 (large)
Launch date: April 24, 1998
Source: Globalstar (GLOB)
Launch site: AIR FORCE EASTERN TEST RANGE (AFETR)
aabbcc
Your satellite tracking list
Your tracking list is empty





NASA's NSSDC Master Catalog

Two Line Element Set (TLE):
1 25307U 98023B   17290.67498354 -.00000082  00000-0 -13400-3 0  9997
2 25307  51.9962 349.0658 0003919  97.9603  74.7041 11.58131421892573
Source of the keplerian elements: AFSPC